Location: Eaton
(41.3139°N, 82.0207°W)
Time: 16:46:59
(UTC+00:00)

Okean 3 Rocket - Pass Details

Date: 17 June 2021
Orbit: 616 x 644 km, 82.5° (Epoch: 02 August)

Event Time Altitude Azimuth Distance (km) Brightness Sun altitude
Exits shadow 08:36:47 13° 192° (SSW) 1,782 5.4 -12.0°
Maximum altitude 08:40:41 77° 278° (W) 638 3.5 -11.5°
Drops below altitude 10° 08:45:05 10° 5° (N) 1,987 6.9 -11.0°
Sets 08:47:19 0° 7° (N) 2,897 7.9 -10.7°
